Regional Weather Roundup
Issued by NWS

Current Version | Previous Version | Text Only | Print | Product List | Glossary On
Versions: 1 2 3 4 5 6 7 8 9 10 11 12 13 14 15 16 17 18 19 20 21 22 23 24 25 26 27 28 29 30 31 32 33 34 35 36 37 38 39 40 41 42 43 44 45 46 47 48 49 50
000
ASUS44 KFWD 290715
RWRTX
NORTH TEXAS HOURLY WEATHER ROUNDUP
NATIONAL WEATHER SERVICE FORT WORTH TX
200 AM CDT MON AUG 29 2016

NOTE: "FAIR" INDICATES FEW OR NO CLOUDS BELOW 12,000 FEET WITH NO
SIGNIFICANT WEATHER AND/OR OBSTRUCTIONS TO VISIBILITY.

TXZ118-119-290800-
DALLAS/FORT WORTH METROPLEX

CITY           SKY/WX    TMP DP  RH WIND       PRES   REMARKS
DFW AIRPORT    PTCLDY    76  71  85 CALM      30.03F
DALLAS LOVE    PTCLDY    78  71  79 SE7       30.04F
FTW MEACHAM    PTCLDY    77  70  79 SE5       30.03F
DAL-EXECUTIVE  CLEAR     75  73  93 CALM      30.04F
FTW-ALLIANCE   PTCLDY    75  70  84 CALM      30.03F
FTW-SPINKS     CLEAR     73  70  90 CALM      30.05F
ARLINGTON      CLEAR     75  71  87 E5        30.04F
GRAND PRAIRIE  CLEAR     75  70  83 CALM      30.05F
ADDISON        CLEAR     78  73  85 SE6       30.06S
MESQUITE       CLEAR     72  72  99 CALM      30.04F
LANCASTER      CLEAR     73  71  93 CALM      30.05S FOG
$$

TXZ091>094-102>105-117-120-121-131>134-290800-
NORTH CENTRAL TEXAS

CITY           SKY/WX    TMP DP  RH WIND       PRES   REMARKS
SHRMAN/DENISON CLEAR     73  72  96 CALM      30.07S
GAINESVILLE      N/A     73  69  88 SE3       30.08S
BOWIE          PTCLDY    74  70  85 SE3       30.06S
BRIDGEPORT     CLEAR     73  70  89 S3        30.07S
DECATUR        CLEAR     73  69  87 E3        30.07S
DENTON         PTCLDY    76  70  82 SE5       30.04F
MCKINNEY       PTCLDY    73  71  93 E3        30.05S
GREENVILLE     MOCLDY    73  70  88 CALM      30.04F
ROCKWALL       PTCLDY    73  73  99 CALM      30.04F
TERRELL        CLEAR     72  70  93 CALM      30.04F
WAXAHACHIE     CLEAR     71  71 100 NE3       30.05S FOG
CLEBURNE       CLEAR     73  73 100 CALM      30.05F
GRANBURY       CLEAR     76  69  78 SE3       30.05F
$$

TXZ083>090-098>101-113>116-127>130-139>142-154-155-290800-
WESTERN NORTH TEXAS

CITY           SKY/WX    TMP DP  RH WIND       PRES   REMARKS
WICHITA FALLS  CLEAR     74  66  76 E3        30.05F
WF-KICKAPOO    CLEAR     74  67  77 E6        30.06F
VERNON         CLEAR     75  63  67 S5        30.07F
ABILENE        CLEAR     71  68  90 E6        30.07F
ABILENE-DYESS  CLEAR     73  67  83 SE6       30.05F
CISCO          CLEAR     72  68  88 E5        30.07F
BRECKENRIDGE   CLEAR     73  67  80 SE5       30.04F
GRAHAM         CLEAR     71  69  94 CALM      30.03S
MINERAL WELLS  PTCLDY    73  69  87 SE5       30.03F
STEPHENVILLE   PTCLDY    73  68  86 CALM      30.08F
COMANCHE       CLEAR     71  71 100 CALM      30.06S
BROWNWOOD      PTCLDY    70  68  94 E5        30.05S
COLEMAN        CLEAR     72  66  83 E3        30.05F
$$

TXZ143>147-156>162-174-175-290800-
CENTRAL TEXAS

CITY           SKY/WX    TMP DP  RH WIND       PRES   REMARKS
WACO           CLEAR     72  71  97 NE5       30.01F
WACO-MCGREGOR  CLEAR     74  70  87 NE5       30.01F
HILLSBORO      CLEAR     70  69  96 CALM      30.03S
CORSICANA      CLEAR     74  70  87 NE5       30.03F
MEXIA          PTCLDY    71  71  99 NW7       30.01F
HEARNE         CLEAR     73  71  94 MISG      29.99F
CAMERON        CLEAR     73  72  95 CALM      29.99F
TEMPLE         CLEAR     73  71  93 NE6       30.01F
KILLEEN        CLEAR     74  71  92 NE3       30.01S
KILLEEN-SKYLRK CLEAR     74  72  93 E6        30.01F
FORT HOOD      CLEAR     73  71  94 E6        29.99F
GATESVILLE     CLEAR     73  72  94 CALM      30.04F
HAMILTON       CLEAR     73  73  99 E5        30.05F
LAMPASAS       CLOUDY    76  74  95 CALM      30.02F
$$

TXZ095>097-106>112-122>126-135>138-148>153-164>167-290800-
EAST TEXAS

CITY           SKY/WX    TMP DP  RH WIND       PRES   REMARKS
PARIS          CLOUDY    73  70  88 NE3       30.06S
SULPHUR SPRNGS CLEAR     73  72  96 CALM      30.07S
MOUNT PLEASANT PTCLDY    73  73 100 CALM      30.05F
GILMER         MOCLDY    73  72  98 CALM      30.03F
TYLER          CLEAR     74  71  91 CALM      30.02F
LONGVIEW       MOCLDY    73  73 100 N3        30.02F
MARSHALL       PTCLDY    70  68  92 CALM      30.04S
ATHENS         CLEAR     72  72 100 CALM      30.01F
PALESTINE      CLEAR     72  72 100 CALM      30.03S
JACKSONVILLE   PTCLDY    71  71 100 N6        30.04F
HENDERSON      PTCLDY    72  72 100 CALM      30.04S
CENTER         MOSUNNY   73  72  95 CALM      30.03S
NACOGDOCHES    CLEAR    N/A N/A N/A CALM      29.99F
LUFKIN         CLEAR     72  70  93 N6        29.99F
$$

SUPPLEMENTAL OBSERVATIONS (CENTRAL)

CITY           SKY/WX    TMP DP  RH WIND       PRES   REMARKS
DENISON DAM      N/A     73  70  88 E1          N/A
PAT MAYSE LAKE   N/A     73  72  94 N2          N/A
GREENVILLE       N/A     73  70  88 E3          N/A
CEDAR HILL       N/A     72  70  94 CALM        N/A
ATHENS           N/A     72  61  68 CALM        N/A
MCGREGOR         N/A     72  70  94 NE3         N/A
TEMPLE           N/A     73  70  88 NE6         N/A
$$

SUPPLEMENTAL OBSERVATIONS (WEST)

CITY           SKY/WX    TMP DP  RH WIND       PRES   REMARKS
MILLERS CREEK    N/A     73  66  78 SE2         N/A
POSSUM KINGDOM   N/A     75  68  78 E3          N/A
GRANBURY         N/A     75  68  78 SE6         N/A
HAMBY            N/A     70  64  83 SE3         N/A
$$

SUPPLEMENTAL OBSERVATIONS (EAST)

CITY           SKY/WX    TMP DP  RH WIND       PRES   REMARKS
CLARKSVILLE      N/A     73  70  88 N1          N/A
TEXARKANA        N/A     73  72  94 CALM        N/A
LINDEN           N/A     73  70  88 CALM        N/A
CADDO LAKE       N/A     72  66  83 CALM        N/A
GILMER           N/A     73  70  88 CALM        N/A
HENDERSON        N/A     72  68  88 NE3         N/A
N SABINE NF      N/A     72  70  94 MISG        N/A
S SABINE NF      N/A     72  70  94 CALM        N/A
$$

SUPPLEMENTAL OBSERVATIONS ARE A COLLECTION OF AUTOMATED INSTRUMENTS
THAT ARE MAINTAINED BY A VARIETY OF FEDERAL AND STATE AGENCIES.
CERTAIN ELEMENTS...SUCH AS HUMIDITY VALUES AND SUSTAINED WIND
SPEEDS...MAY BE APPROXIMATED.





USA.gov is the U.S. government's official web portal to all federal, state and local government web resources and services.